Cosmos 841 Rocket - Orbit

View from above orbital plane
View from above orbital plane
View from above satellite
View from above satellite

Ground track
Ground track

The orbit data is extracted from the following two-line orbital elements,

1 09023U 76069B   13145.09642434  .00000283  00000-0  10029-3 0  1178
2 09023 074.0444 314.6273 0016961 127.9394 232.3296 14.38932278931303
Epoch (UTC): 25 May 2013 02:18:51
Eccentricity: 0.0016961
inclination: 74.0444°
perigee height: 750 km
apogee height: 774 km
right ascension of ascending node: 314.6273°
argument of perigee: 127.9394°
revolutions per day: 14.38932278
mean anomaly at epoch: 232.3296°
orbit number at epoch: 93130

The dashed part of the orbit path shows where the satellite is in the earth's shadow,  

Developed and maintained by Chris Peat, Heavens-Above GmbH. Please read the updated FAQ before sending e-mail. Imprint. DLR